Flag for U.S.A. Weather past 2 weeks in Bloomington, Indiana, U.S.A.

Now
28 °F

Mostly cloudy.


Feels Like: 24 °F
Forecast: 21 / 34 °F
Wind: 3 mph from North

Location: Monroe County Airport

Current Time: Dec 18, 2014 at 9:00:26 PM

Latest Report: Dec 18, 2014 at 7:53 PM


Visibility: 10 mi

Pressure: 30.26 "Hg

Humidity: 81%

Dew point: 23 °F

Location of BloomingtonLocation

Historic Weather in Bloomington — Graph

°F

Bloomington temperature yesterday

Maximum temperature yesterday: 31 °F (at 12:53 AM)
Minimum temperature yesterday: 24 °F (at 9:53 PM)
Average temperature yesterday: 27 °F

Past Weeks' High & Low Weather Summary

 TemperatureHumidityPressure
High50 °F (Dec 16, 2:59 AM)100% (Dec 3, 7:53 PM)30.60 "Hg (Dec 3, 7:53 PM)
Low22 °F (Dec 12, 2:53 AM)55% (Dec 11, 1:53 PM)29.69 "Hg (Dec 16, 1:53 AM)
Average36 °F85%30.23 "Hg
* Reported Dec 3 7:53 PM — Dec 18 7:53 PM, Bloomington, Weather by CustomWeather, © 2014

Note: Actual official high and low records may vary slightly from our data, if they occured in-between our weather recording intervals... More about our weather records

Advertising

Bloomington weather history for previous 24 hours

 ConditionsComfort  
Time TempWeatherWind HumidityBarometerVisibility
7:53 PM
Dec 18
28 °FMostly cloudy.3 mph81%30.26 "Hg10 mi
6:53 PM29 °FOvercast.No wind75%30.26 "Hg10 mi
5:53 PM29 °FOvercast.No wind75%30.24 "Hg10 mi
4:53 PM30 °FOvercast.No wind72%30.24 "Hg10 mi
3:53 PM30 °FOvercast.No wind72%30.24 "Hg10 mi
2:53 PM30 °FMostly cloudy.No wind72%30.24 "Hg10 mi
1:53 PM29 °FOvercast.No wind75%30.25 "Hg10 mi
12:53 PM28 °FPartly sunny.5 mph78%30.27 "Hg10 mi
11:53 AM27 °FOvercast.No wind78%30.30 "Hg9 mi
10:53 AM26 °FOvercast.No wind81%30.33 "Hg10 mi
9:53 AM26 °FOvercast.3 mph81%30.32 "Hg10 mi
8:53 AM25 °FOvercast.3 mph81%30.31 "Hg10 mi
7:53 AM25 °FOvercast.3 mph81%30.31 "Hg10 mi
6:53 AM25 °FOvercast.3 mph81%30.30 "Hg10 mi
5:53 AM25 °FOvercast.5 mph78%30.27 "Hg10 mi
4:53 AM25 °FOvercast.5 mph78%30.29 "Hg10 mi
3:53 AM25 °FOvercast.6 mph81%30.29 "Hg10 mi
2:53 AM25 °FOvercast.5 mph81%30.32 "Hg10 mi
1:53 AM24 °FOvercast.No wind84%30.31 "Hg10 mi
12:53 AM24 °FOvercast.7 mph84%30.32 "Hg10 mi
11:53 PM
Dec 17
25 °FOvercast.7 mph81%30.31 "Hg9 mi
10:53 PM24 °FOvercast.3 mph84%30.32 "Hg10 mi
9:53 PM24 °FOvercast.3 mph84%30.31 "Hg10 mi
Weather by CustomWeather, © 2014

See weather overviewHow to use our weather pages